Date String (YYYY-MM-DD hh:mm:ss) UTC,Instrument flags,Ambient pressure (hPa),Sample flow (lpm),Bypass flow (lpm),Sample temperature (°C),Ambient temperature (°C),ASC tube jacket temperature (°C),LED temperature (°C),Box temperature (°C),Sample RH (%),Span deviation,Mass concentration (μg/m³),Mass concentration (μg/m³),Mass concentration (μg/m³)
DateTimeUTC,F1_M11,P_M11,Q1_M11,Q2_M11,T1_M11,T2_M11,T3_M11,T4_M11,T5_M11,U1_M11,ZSPAN_M11,X2_M11,X0_M11,X1_M11
2023-03-01 03:00:00,,0816.3,5.00,0.00,21.9,20.2,00.0,30.7,23.6,07.5,0000.0,0001.04,0003.73,0000.64
2023-03-01 03:01:00,,0816.4,5.01,0.00,21.9,20.2,00.0,30.7,23.6,07.6,0000.0,0001.05,0003.75,0000.65
2023-03-01 03:02:00,,0816.4,4.99,0.00,21.9,20.6,00.0,30.7,23.7,07.6,0000.0,0001.06,0003.89,0000.65
2023-03-01 03:03:00,,0816.4,4.98,0.00,22.0,21.7,00.0,30.7,23.9,07.5,0000.0,0001.09,0003.15,0000.67
2023-03-01 03:04:00,,0816.4,5.00,0.00,22.1,22.8,00.0,30.7,24.2,07.2,0000.0,0001.10,0002.36,0000.67
2023-03-01 03:05:00,,0816.4,5.02,0.00,22.3,22.8,00.0,30.8,24.3,07.4,0000.0,0001.09,0002.37,0000.67
2023-03-01 03:06:00,,0816.5,4.98,0.00,22.3,22.3,00.0,30.8,24.2,07.5,0000.0,0001.08,0002.27,0000.66
2023-03-01 03:07:00,,0816.4,5.02,0.00,22.3,21.8,00.0,30.8,24.1,07.7,0000.0,0001.09,0002.36,0000.66
2023-03-01 03:08:00,,0816.4,5.01,0.00,22.3,21.5,00.0,30.9,24.0,07.6,0000.0,0001.12,0002.59,0000.66
2023-03-01 03:09:00,,0816.4,5.01,0.00,22.3,21.2,00.0,30.9,24.0,07.6,0000.0,0001.10,0002.56,0000.66
2023-03-01 03:10:00,,0816.4,5.01,0.00,22.2,21.0,00.0,30.9,24.0,07.6,0000.0,0001.11,0002.62,0000.66
2023-03-01 03:11:00,,0816.4,5.00,0.00,22.2,20.9,00.0,30.9,23.9,07.5,0000.0,0001.12,0002.57,0000.65
2023-03-01 03:12:00,,0816.4,4.99,0.00,22.2,20.7,00.0,30.9,23.9,07.3,0000.0,0001.14,0003.00,0000.65
2023-03-01 03:13:00,,0816.4,4.99,0.00,22.2,20.6,00.0,30.9,23.9,07.8,0000.0,0001.15,0003.45,0000.64
2023-03-01 03:14:00,,0816.4,5.00,0.00,22.2,20.5,00.0,30.9,23.9,07.6,0000.0,0001.13,0003.43,0000.62
2023-03-01 03:15:00,,0816.5,5.00,0.00,22.2,20.5,00.0,30.9,23.9,07.5,0000.0,0001.08,0003.34,0000.61
2023-03-01 03:16:00,,0816.4,4.99,0.00,22.1,20.4,00.0,30.9,23.9,07.6,0000.0,0001.08,0003.28,0000.59
2023-03-01 03:17:00,,0816.5,5.00,0.00,22.1,20.4,00.0,30.9,23.9,07.6,0000.0,0001.04,0003.17,0000.59
2023-03-01 03:18:00,,0816.4,5.01,0.00,22.1,20.4,00.0,30.9,23.8,07.6,0000.0,0001.04,0003.12,0000.59
2023-03-01 03:19:00,,0816.6,5.00,0.00,22.1,20.4,00.0,30.9,23.8,07.3,0000.0,0001.05,0002.99,0000.58
2023-03-01 03:20:00,,0816.5,5.01,0.00,22.1,20.6,00.0,30.8,23.8,07.2,0000.0,0001.09,0003.23,0000.59
2023-03-01 03:21:00,,0816.4,5.00,0.00,22.1,21.8,00.0,30.8,24.1,07.1,0000.0,0001.08,0003.28,0000.59
2023-03-01 03:22:00,,0816.5,5.02,0.00,22.3,22.9,00.0,30.8,24.4,07.2,0000.0,0001.07,0003.28,0000.61
2023-03-01 03:23:00,,0816.5,4.99,0.00,22.4,23.0,00.0,30.9,24.5,07.1,0000.0,0001.03,0002.81,0000.61
2023-03-01 03:24:00,,0816.5,4.98,0.00,22.4,22.5,00.0,30.9,24.4,07.1,0000.0,0001.03,0002.31,0000.63
2023-03-01 03:25:00,,0816.5,5.01,0.00,22.4,22.1,00.0,31.0,24.3,07.3,0000.0,0001.06,0002.90,0000.64
2023-03-01 03:26:00,,0816.5,5.00,0.00,22.4,21.7,00.0,31.0,24.2,07.2,0000.0,0001.10,0003.64,0000.64
2023-03-01 03:27:00,,0816.6,5.00,0.00,22.4,21.4,00.0,31.0,24.2,07.2,0000.0,0001.11,0003.92,0000.65
2023-03-01 03:28:00,,0816.5,5.00,0.00,22.4,21.2,00.0,31.0,24.1,07.1,0000.0,0001.12,0003.92,0000.65
2023-03-01 03:29:00,,0816.4,5.00,0.00,22.4,21.0,00.0,31.0,24.1,07.2,0000.0,0001.10,0003.97,0000.65
2023-03-01 03:30:00,,0816.4,5.00,0.00,22.3,20.9,00.0,31.0,24.0,07.0,0000.0,0001.05,0003.80,0000.65
2023-03-01 03:31:00,,0816.5,5.00,0.00,22.3,20.8,00.0,31.0,24.0,06.9,0000.0,0001.06,0003.65,0000.65
2023-03-01 03:32:00,,0816.5,5.00,0.00,22.3,20.7,00.0,31.0,24.0,06.9,0000.0,0001.05,0003.52,0000.65
2023-03-01 03:33:00,,0816.6,5.00,0.00,22.3,20.6,00.0,31.0,24.0,07.0,0000.0,0001.08,0003.57,0000.64
2023-03-01 03:34:00,,0816.5,5.00,0.00,22.2,20.6,00.0,31.0,24.0,07.0,0000.0,0001.11,0003.63,0000.64
2023-03-01 03:35:00,,0816.5,4.99,0.00,22.2,20.5,00.0,31.0,23.9,07.0,0000.0,0001.14,0003.63,0000.63
2023-03-01 03:36:00,,0816.7,5.00,0.00,22.2,20.5,00.0,31.0,23.9,07.0,0000.0,0001.13,0003.19,0000.64
2023-03-01 03:37:00,,0816.8,4.99,0.00,22.2,20.4,00.0,31.0,23.9,06.9,0000.0,0001.12,0002.58,0000.65
2023-03-01 03:38:00,,0816.7,5.00,0.00,22.2,20.4,00.0,31.0,23.9,06.8,0000.0,0001.14,0002.43,0000.65
2023-03-01 03:39:00,,0816.6,5.00,0.00,22.2,20.4,00.0,30.9,23.9,06.7,0000.0,0001.19,0002.62,0000.65
2023-03-01 03:40:00,,0816.6,4.99,0.00,22.1,20.4,00.0,30.9,23.8,06.9,0000.0,0001.20,0002.57,0000.66
2023-03-01 03:41:00,,0816.8,5.02,0.00,22.2,21.4,00.0,30.9,24.0,07.1,0000.0,0001.22,0002.60,0000.67
2023-03-01 03:42:00,,0816.6,4.98,0.00,22.3,22.4,00.0,30.9,24.3,06.9,0000.0,0001.20,0002.55,0000.67
2023-03-01 03:43:00,,0816.6,4.97,0.00,22.4,22.9,00.0,30.9,24.4,06.9,0000.0,0001.22,0003.23,0000.68
2023-03-01 03:44:00,,0816.7,5.02,0.00,22.4,22.4,00.0,31.0,24.3,06.9,0000.0,0001.21,0003.28,0000.68
2023-03-01 03:45:00,,0816.6,5.00,0.00,22.4,22.0,00.0,31.0,24.3,06.7,0000.0,0001.24,0003.36,0000.70
2023-03-01 03:46:00,,0816.8,5.01,0.00,22.4,21.7,00.0,31.0,24.2,06.5,0000.0,0001.20,0003.27,0000.71
2023-03-01 03:47:00,,0817.0,5.00,0.00,22.4,21.4,00.0,31.0,24.2,06.6,0000.0,0001.24,0003.49,0000.70
2023-03-01 03:48:00,,0817.1,5.00,0.00,22.4,21.2,00.0,31.1,24.1,06.5,0000.0,0001.30,0003.85,0000.70
2023-03-01 03:49:00,,0817.1,5.00,0.00,22.4,21.0,00.0,31.1,24.1,06.5,0000.0,0001.31,0003.88,0000.71
2023-03-01 03:50:00,,0816.9,5.00,0.00,22.4,20.9,00.0,31.1,24.1,06.4,0000.0,0001.25,0003.63,0000.72
2023-03-01 03:51:00,,0816.8,5.00,0.00,22.3,20.8,00.0,31.0,24.1,06.4,0000.0,0001.25,0003.58,0000.73
2023-03-01 03:52:00,,0816.8,4.99,0.00,22.3,20.7,00.0,31.0,24.1,06.4,0000.0,0001.26,0003.61,0000.73
2023-03-01 03:53:00,,0816.8,5.00,0.00,22.3,20.6,00.0,31.0,24.0,06.4,0000.0,0001.30,0003.78,0000.74
2023-03-01 03:54:00,,0816.8,5.00,0.00,22.3,20.6,00.0,31.0,24.0,06.4,0000.0,0001.32,0003.44,0000.75
2023-03-01 03:55:00,,0816.8,5.01,0.00,22.3,20.5,00.0,31.0,24.0,06.4,0000.0,0001.33,0003.34,0000.77
2023-03-01 03:56:00,,0816.8,5.01,0.00,22.2,20.5,00.0,31.0,24.0,06.4,0000.0,0001.31,0003.23,0000.77
2023-03-01 03:57:00,,0816.9,5.00,0.00,22.2,20.4,00.0,31.0,23.9,06.1,0000.0,0001.31,0003.23,0000.77
2023-03-01 03:58:00,,0816.8,5.00,0.00,22.2,20.4,00.0,31.0,23.9,06.1,0000.0,0001.27,0002.82,0000.78
2023-03-01 03:59:00,,0816.9,4.99,0.00,22.2,20.4,00.0,31.0,23.8,06.0,0000.0,0001.23,0002.45,0000.80
